User: anonymous   Login
Location: Niedergestelen
(46.3129°N, 7.7822°E)
Time: 04:42:03
(UTC+00:00)
Language:

Cosmos 1741 - Orbit

View from above orbital plane
View from above orbital plane
View from above satellite
View from above satellite

Ground track
Ground track

The orbit data is extracted from the following two-line orbital elements,

1 16681U 86030A   21165.38484493 -.00000012  00000-0  50050-5 0  9996
2 16681  74.0219 153.3740 0018594 157.3807 202.8168 14.33032453837214
Epoch (UTC): 14 June 2021 09:14:10
Eccentricity: 0.0018594
inclination: 74.0219°
perigee height: 768 km
apogee height: 795 km
right ascension of ascending node: 153.3740°
argument of perigee: 157.3807°
revolutions per day: 14.33032453
mean anomaly at epoch: 202.8168°
orbit number at epoch: 83721

The dashed part of the orbit path shows where the satellite is in the earth's shadow,  

DLR